Weather History for Quincy, IL

Change the Weather History Date:

Tuesday, July 15, 2014

  Actual Average Record
Temperature  
Mean Temperature 62 °F 76 °F  
Max Temperature 70 °F 86 °F 114 °F (1936)
Min Temperature 54 °F 67 °F 52 °F (1967)
Degree Days  
Heating Degree Days 3 0  
Month to date heating degree days 4 0  
Since 1 June heating degree days 8 16  
Since 1 July heating degree days 4 0  
Cooling Degree Days 0 11  
Month to date cooling degree days 105 165  
Year to date cooling degree days 515 478  
Since 1 June cooling degree days 372 392  
Growing Degree Days 12 (Base 50)    
Moisture  
Dew Point 51 °F    
Average Humidity 70    
Maximum Humidity 86    
Minimum Humidity 53    
Precipitation  
Precipitation 0.00 in 0.14 in 3.17 in (1910)
Month to date precipitation 2.05 2.02  
Year to date precipitation 18.61 20.10  
Sea Level Pressure  
Sea Level Pressure 30.03 in    
Wind  
Wind Speed 9 mph (NW)    
Max Wind Speed 20 mph    
Max Gust Speed 24 mph    
Visibility 10 miles    
Events      
T = Trace of Precipitation, MM = Missing Value Source: NWS Daily Summary

Daily Weather History Graph

Daily Weather History Graph

Search for Another Location

Airport:

Trip Planner

Search our weather history database for the weather conditions in past years. The results will help you decide how hot, cold, wet, or windy it might be!

Date:

Astronomy

Jul. 15, 2014 Rise Set
Actual Time 5:48 AM CDT 8:32 PM CDT
Civil Twilight 5:16 AM CDT 9:04 PM CDT
Nautical Twilight 4:37 AM CDT 9:43 PM CDT
Astronomical Twilight 3:51 AM CDT 10:28 PM CDT
Moon 10:40 PM CDT (7/15) 9:43 AM CDT (7/15)
Length of Visible Light 15h 47m
Length of Day
14h 43m
Waning Gibbous, 85% of the Moon is Illuminated
Jul 15
Waning Gibbous
Jul 18
Last Quarter
Jul 26
New
Aug 3
First Quarter
Aug 10
Full

Hourly Weather History & Observations

Time (CDT) Temp. Dew Point Humidity Pressure Visibility Wind Dir Wind Speed Gust Speed Precip Events Conditions
12:54 AM 57.0 °F 50.0 °F 77% 30.01 in 10.0 mi WNW 4.6 mph - N/A   Clear
1:54 AM 55.9 °F 48.9 °F 77% 30.01 in 10.0 mi West 4.6 mph - N/A   Clear
2:54 AM 55.0 °F 48.9 °F 80% 30.00 in 10.0 mi NW 5.8 mph - N/A   Clear
3:54 AM 55.0 °F 48.9 °F 80% 29.99 in 10.0 mi NW 8.1 mph - N/A   Clear
4:54 AM 55.9 °F 48.9 °F 77% 29.99 in 10.0 mi NNW 11.5 mph - N/A   Clear
5:54 AM 54.0 °F 48.9 °F 83% 30.01 in 10.0 mi NW 8.1 mph - N/A   Clear
6:54 AM 55.9 °F 50.0 °F 80% 30.03 in 10.0 mi NNW 13.8 mph - N/A   Clear
7:54 AM 59.0 °F 51.1 °F 75% 30.03 in 10.0 mi NNW 13.8 mph - N/A   Clear
8:54 AM 62.1 °F 51.1 °F 67% 30.05 in 10.0 mi NNW 15.0 mph - N/A   Clear
9:54 AM 64.0 °F 50.0 °F 60% 30.04 in 10.0 mi NNW 16.1 mph - N/A   Clear
10:54 AM 66.0 °F 52.0 °F 60% 30.05 in 10.0 mi NNW 13.8 mph - N/A   Scattered Clouds
11:54 AM 68.0 °F 52.0 °F 56% 30.05 in 10.0 mi NNW 10.4 mph 20.7 mph N/A   Scattered Clouds
12:54 PM 66.9 °F 52.0 °F 59% 30.06 in 10.0 mi NW 15.0 mph - N/A   Mostly Cloudy
1:54 PM 68.0 °F 53.1 °F 59% 30.05 in 10.0 mi NNW 12.7 mph - N/A   Mostly Cloudy
2:54 PM 68.0 °F 52.0 °F 56% 30.04 in 10.0 mi NW 15.0 mph 24.2 mph N/A   Scattered Clouds
3:54 PM 68.0 °F 51.1 °F 55% 30.04 in 10.0 mi NNW 12.7 mph - N/A   Overcast
4:54 PM 68.0 °F 51.1 °F 55% 30.04 in 10.0 mi NNW 10.4 mph - N/A   Overcast
5:54 PM 69.1 °F 52.0 °F 54% 30.02 in 10.0 mi NW 9.2 mph - N/A   Scattered Clouds
6:54 PM 68.0 °F 51.1 °F 55% 30.02 in 10.0 mi NW 6.9 mph - N/A   Overcast
7:54 PM 64.9 °F 54.0 °F 68% 30.02 in 10.0 mi NW 3.5 mph - N/A   Mostly Cloudy
8:54 PM 63.0 °F 54.0 °F 72% 30.01 in 10.0 mi Calm Calm - N/A   Partly Cloudy
9:54 PM 61.0 °F 54.0 °F 78% 30.03 in 10.0 mi WNW 3.5 mph - N/A   Clear
10:54 PM 60.1 °F 53.1 °F 78% 30.03 in 10.0 mi WNW 3.5 mph - N/A   Clear
11:54 PM 57.0 °F 54.0 °F 89% 30.04 in 10.0 mi West 4.6 mph - N/A   Clear